Flag for Angola Weather past 2 weeks in Lubango, Angola

Now
84 °F

Warm.


Feels Like: 85 °F
Forecast: 54 / 74 °F
Wind: 1 mph from Northeast

Location: Ondangwa

Current Time: Jan 25, 2015 at 5:20:44 PM

Latest Report: Jan 25, 2015 at 2:00 PM


Visibility: N/A

Pressure: 29.89 "Hg

Humidity: 48%

Dew point: 63 °F

Location of LubangoLocation

Historic Weather in Lubango — Graph

°F

Lubango temperature yesterday

Maximum temperature yesterday: 81 °F (at 10:00 AM)
Minimum temperature yesterday: 70 °F (at 12:00 AM)
Average temperature yesterday: 72 °F

Past Weeks' High & Low Weather Summary

 TemperatureHumidityPressure
High100 °F (Jan 11, 3:00 PM)94% (Jan 23, 8:00 PM)30.07 "Hg (Jan 23, 8:00 PM)
Low68 °F (Jan 25, 6:00 AM)13% (Jan 16, 3:00 PM)29.77 "Hg (Jan 12, 5:00 PM)
Average82 °F46%29.94 "Hg
* Reported Jan 10 3:00 PM — Jan 25 2:00 PM, Lubango, Weather by CustomWeather, © 2014

Note: Actual official high and low records may vary slightly from our data, if they occured in-between our weather recording intervals... More about our weather records

Advertising

Lubango weather history for previous 24 hours

 ConditionsComfort  
Time TempWeatherWind HumidityBarometerVisibility
2:00 PM
Jan 25
84 °FWarm.1 mph48%29.89 "HgN/A
12:00 PM79 °FWarm.3 mph58%29.95 "HgN/A
10:00 AM75 °FMild.3 mph69%29.98 "HgN/A
9:00 AM77 °FWarm.1 mph65%30.01 "HgN/A
8:00 AM72 °FScattered clouds.3 mph78%29.98 "HgN/A
7:00 AM70 °FScattered clouds.2 mph83%29.98 "HgN/A
6:00 AM68 °FPassing clouds.3 mph88%29.95 "HgN/A
4:00 AM70 °FScattered showers. Partly cloudy.2 mph78%29.95 "HgN/A
3:00 AM70 °FMild.1 mph83%29.95 "HgN/A
2:00 AM70 °FMild.3 mph83%29.95 "HgN/A
1:00 AM70 °FMild.7 mph83%29.95 "HgN/A
12:00 AM72 °FMild.8 mph83%29.98 "HgN/A
11:00 PM
Jan 24
70 °FMild.No wind88%29.98 "HgN/A
10:00 PM70 °FMild.10 mph88%29.98 "HgN/A
9:00 PM70 °FMild.2 mph88%29.98 "HgN/A
8:00 PM70 °FMild.7 mph88%29.95 "HgN/A
7:00 PM72 °FMild.9 mph78%29.95 "HgN/A
6:00 PM73 °FMild.9 mph83%29.92 "HgN/A
Weather by CustomWeather, © 2014

See weather overviewHow to use our weather pages